Time,TemperatureF,DewpointF,PressureIn,WindDirection,WindDirectionDegrees,WindSpeedMPH,WindSpeedGustMPH,Humidity,HourlyPrecipIn,Conditions,Clouds,dailyrainin,SoftwareType,DateUTC
2013-03-09 00:00:00,20.0,17.7,30.00,SE,139,3.0,5.0,91,0.00,,,0.00,VWS V14.01,2013-03-09 06:00:00,
2013-03-09 00:05:00,20.0,17.7,29.99,SE,139,0.0,3.0,91,0.00,,,0.00,VWS V14.01,2013-03-09 06:05:00,
2013-03-09 00:10:00,20.0,17.7,29.99,SE,139,0.0,3.0,91,0.00,,,0.00,VWS V14.01,2013-03-09 06:10:00,
2013-03-09 00:15:00,20.1,17.8,29.98,SE,126,3.0,6.0,91,0.00,,,0.00,VWS V14.01,2013-03-09 06:15:00,
2013-03-09 00:20:00,20.1,17.6,29.98,SE,132,6.0,6.0,90,0.00,,,0.00,VWS V14.01,2013-03-09 06:20:00,
2013-03-09 00:25:00,20.1,17.6,29.98,SE,136,4.0,7.0,90,0.00,,,0.00,VWS V14.01,2013-03-09 06:25:00,
2013-03-09 00:30:00,20.2,17.7,29.98,SE,136,3.0,7.0,90,0.00,,,0.00,VWS V14.01,2013-03-09 06:30:00,
2013-03-09 00:35:00,20.2,17.7,29.98,SE,136,2.0,4.0,90,0.00,,,0.00,VWS V14.01,2013-03-09 06:35:00,
2013-03-09 00:40:00,20.2,17.7,29.97,SE,135,2.0,5.0,90,0.00,,,0.00,VWS V14.01,2013-03-09 06:40:00,
2013-03-09 00:45:00,20.2,17.7,29.97,SE,134,1.0,7.0,90,0.00,,,0.00,VWS V14.01,2013-03-09 06:45:00,
2013-03-09 00:50:00,20.2,17.7,29.97,SE,135,4.0,5.0,90,0.00,,,0.00,VWS V14.01,2013-03-09 06:50:00,
2013-03-09 00:55:00,20.3,17.8,29.97,SE,134,6.0,6.0,90,0.00,,,0.00,VWS V14.01,2013-03-09 06:55:00,
2013-03-09 01:00:00,20.3,17.8,29.96,SE,134,3.0,6.0,90,0.00,,,0.00,VWS V14.01,2013-03-09 07:00:00,
2013-03-09 01:05:00,20.3,17.8,29.96,SE,134,1.0,6.0,90,0.00,,,0.00,VWS V14.01,2013-03-09 07:05:00,
2013-03-09 01:10:00,20.3,17.8,29.96,SE,130,2.0,6.0,90,0.00,,,0.00,VWS V14.01,2013-03-09 07:10:00,
2013-03-09 01:15:00,20.2,17.7,29.96,SE,126,0.0,6.0,90,0.00,,,0.00,VWS V14.01,2013-03-09 07:15:00,
2013-03-09 01:20:00,20.2,17.7,29.96,SE,127,0.0,3.0,90,0.00,,,0.00,VWS V14.01,2013-03-09 07:20:00,
2013-03-09 01:25:00,20.2,17.7,29.96,SE,125,3.0,4.0,90,0.00,,,0.00,VWS V14.01,2013-03-09 07:25:00,
2013-03-09 01:30:00,20.2,17.7,29.95,SE,124,1.0,4.0,90,0.00,,,0.00,VWS V14.01,2013-03-09 07:30:00,
2013-03-09 01:35:00,20.2,17.7,29.95,ESE,123,3.0,3.0,90,0.00,,,0.00,VWS V14.01,2013-03-09 07:35:00,
2013-03-09 01:40:00,20.2,17.7,29.95,ESE,121,0.0,4.0,90,0.00,,,0.00,VWS V14.01,2013-03-09 07:40:00,
2013-03-09 01:45:00,20.2,17.7,29.95,ESE,121,0.0,4.0,90,0.00,,,0.00,VWS V14.01,2013-03-09 07:45:00,
2013-03-09 01:50:00,20.2,17.7,29.95,ESE,121,0.0,0.0,90,0.00,,,0.00,VWS V14.01,2013-03-09 07:50:00,
2013-03-09 01:55:00,20.2,17.7,29.95,ESE,121,0.0,0.0,90,0.00,,,0.00,VWS V14.01,2013-03-09 07:55:00,
2013-03-09 02:00:00,20.2,17.7,29.95,ESE,121,0.0,0.0,90,0.00,,,0.00,VWS V14.01,2013-03-09 08:00:00,
2013-03-09 02:05:00,20.1,17.6,29.94,ESE,121,0.0,0.0,90,0.00,,,0.00,VWS V14.01,2013-03-09 08:05:00,
2013-03-09 02:10:00,20.1,17.6,29.94,ESE,121,0.0,0.0,90,0.00,,,0.00,VWS V14.01,2013-03-09 08:10:00,
2013-03-09 02:15:00,20.0,17.5,29.93,ESE,121,0.0,0.0,90,0.00,,,0.00,VWS V14.01,2013-03-09 08:15:00,
2013-03-09 02:20:00,20.0,17.5,29.93,ESE,121,0.0,0.0,90,0.00,,,0.00,VWS V14.01,2013-03-09 08:20:00,
2013-03-09 02:25:00,19.9,17.4,29.93,ESE,121,0.0,0.0,90,0.00,,,0.00,VWS V14.01,2013-03-09 08:25:00,
2013-03-09 02:30:00,20.0,17.5,29.93,ESE,121,0.0,0.0,90,0.00,,,0.00,VWS V14.01,2013-03-09 08:30:00,
2013-03-09 02:35:00,19.9,17.4,29.93,ESE,121,0.0,0.0,90,0.00,,,0.00,VWS V14.01,2013-03-09 08:35:00,
2013-03-09 02:40:00,19.9,17.4,29.93,ESE,121,0.0,0.0,90,0.00,,,0.00,VWS V14.01,2013-03-09 08:40:00,
2013-03-09 02:44:00,19.9,17.4,29.93,ESE,121,0.0,0.0,90,0.00,,,0.00,VWS V14.01,2013-03-09 08:44:00,
2013-03-09 02:45:00,19.9,17.4,29.93,ESE,121,0.0,0.0,90,0.00,,,0.00,VWS V14.01,2013-03-09 08:45:00,
2013-03-09 02:49:00,19.8,17.3,29.92,ESE,121,0.0,0.0,90,0.00,,,0.00,VWS V14.01,2013-03-09 08:49:00,
2013-03-09 02:54:00,19.9,17.4,29.92,ESE,121,0.0,0.0,90,0.00,,,0.00,VWS V14.01,2013-03-09 08:54:00,
2013-03-09 02:59:00,19.9,17.4,29.92,ESE,121,0.0,0.0,90,0.00,,,0.00,VWS V14.01,2013-03-09 08:59:00,
2013-03-09 03:00:00,19.9,17.4,29.92,ESE,121,0.0,0.0,90,0.00,,,0.00,VWS V14.01,2013-03-09 09:00:00,
2013-03-09 03:04:00,19.9,17.4,29.92,ESE,121,0.0,2.0,90,0.00,,,0.00,VWS V14.01,2013-03-09 09:04:00,
2013-03-09 03:09:00,19.9,17.4,29.92,ESE,121,0.0,2.0,90,0.00,,,0.00,VWS V14.01,2013-03-09 09:09:00,
2013-03-09 03:14:00,20.0,17.5,29.92,ESE,121,0.0,2.0,90,0.00,,,0.00,VWS V14.01,2013-03-09 09:14:00,
2013-03-09 03:15:00,19.9,17.4,29.92,ESE,121,0.0,2.0,90,0.00,,,0.00,VWS V14.01,2013-03-09 09:15:00,
2013-03-09 03:19:00,20.0,17.5,29.92,ESE,121,0.0,0.0,90,0.00,,,0.00,VWS V14.01,2013-03-09 09:19:00,
2013-03-09 03:24:00,19.9,17.4,29.91,ESE,121,0.0,0.0,90,0.00,,,0.00,VWS V14.01,2013-03-09 09:24:00,
2013-03-09 03:29:00,19.9,17.4,29.90,ESE,121,0.0,0.0,90,0.00,,,0.00,VWS V14.01,2013-03-09 09:29:00,
2013-03-09 03:30:00,19.9,17.4,29.90,ESE,121,0.0,0.0,90,0.00,,,0.00,VWS V14.01,2013-03-09 09:30:00,
2013-03-09 03:34:00,19.9,17.4,29.91,ESE,121,0.0,0.0,90,0.00,,,0.00,VWS V14.01,2013-03-09 09:34:00,
2013-03-09 03:39:00,19.9,17.4,29.90,ESE,121,0.0,1.0,90,0.00,,,0.00,VWS V14.01,2013-03-09 09:39:00,
2013-03-09 03:44:00,19.9,17.4,29.90,ESE,121,0.0,1.0,90,0.00,,,0.00,VWS V14.01,2013-03-09 09:44:00,
2013-03-09 03:45:00,19.9,17.4,29.90,ESE,121,0.0,1.0,90,0.00,,,0.00,VWS V14.01,2013-03-09 09:45:00,
2013-03-09 03:49:00,19.9,17.4,29.89,ESE,121,0.0,0.0,90,0.00,,,0.00,VWS V14.01,2013-03-09 09:49:00,
2013-03-09 03:54:00,19.9,17.4,29.90,ESE,121,0.0,2.0,90,0.00,,,0.00,VWS V14.01,2013-03-09 09:54:00,
2013-03-09 03:59:00,19.9,17.4,29.90,ESE,121,0.0,2.0,90,0.00,,,0.00,VWS V14.01,2013-03-09 09:59:00,
2013-03-09 04:00:00,19.9,17.4,29.90,ESE,121,0.0,2.0,90,0.00,,,0.00,VWS V14.01,2013-03-09 10:00:00,
2013-03-09 04:04:00,19.9,17.4,29.89,ESE,121,0.0,0.0,90,0.00,,,0.00,VWS V14.01,2013-03-09 10:04:00,
2013-03-09 04:09:00,19.9,17.4,29.89,ESE,121,0.0,0.0,90,0.00,,,0.00,VWS V14.01,2013-03-09 10:09:00,
2013-03-09 04:14:00,19.9,17.4,29.89,ESE,121,0.0,0.0,90,0.00,,,0.00,VWS V14.01,2013-03-09 10:14:00,
2013-03-09 04:15:00,19.9,17.6,29.89,ESE,121,0.0,0.0,91,0.00,,,0.00,VWS V14.01,2013-03-09 10:15:00,
2013-03-09 04:19:00,19.9,17.6,29.89,ESE,121,0.0,0.0,91,0.00,,,0.00,VWS V14.01,2013-03-09 10:19:00,
2013-03-09 04:24:00,19.9,17.6,29.89,ESE,121,0.0,0.0,91,0.00,,,0.00,VWS V14.01,2013-03-09 10:24:00,
2013-03-09 04:29:00,19.8,17.5,29.89,ESE,121,0.0,0.0,91,0.00,,,0.00,VWS V14.01,2013-03-09 10:29:00,
2013-03-09 04:30:00,19.8,17.5,29.89,ESE,121,0.0,0.0,91,0.00,,,0.00,VWS V14.01,2013-03-09 10:30:00,
2013-03-09 04:34:00,19.8,17.5,29.88,ESE,121,0.0,0.0,91,0.00,,,0.00,VWS V14.01,2013-03-09 10:34:00,
2013-03-09 04:39:00,19.8,17.5,29.89,ESE,121,0.0,0.0,91,0.00,,,0.00,VWS V14.01,2013-03-09 10:39:00,
2013-03-09 04:44:00,19.8,17.5,29.88,ESE,121,0.0,0.0,91,0.00,,,0.00,VWS V14.01,2013-03-09 10:44:00,
2013-03-09 04:45:00,19.8,17.5,29.88,ESE,121,0.0,0.0,91,0.00,,,0.00,VWS V14.01,2013-03-09 10:45:00,
2013-03-09 04:49:00,19.8,17.5,29.89,ESE,121,0.0,0.0,91,0.00,,,0.00,VWS V14.01,2013-03-09 10:49:00,
2013-03-09 04:54:00,19.8,17.5,29.89,ESE,121,0.0,0.0,91,0.00,,,0.00,VWS V14.01,2013-03-09 10:54:00,
2013-03-09 04:59:00,19.8,17.5,29.88,ESE,122,3.0,4.0,91,0.00,,,0.00,VWS V14.01,2013-03-09 10:59:00,
2013-03-09 05:00:00,19.8,17.5,29.88,ESE,123,3.0,4.0,91,0.00,,,0.00,VWS V14.01,2013-03-09 11:00:00,
2013-03-09 05:04:00,19.9,17.6,29.88,ESE,123,2.0,4.0,91,0.00,,,0.00,VWS V14.01,2013-03-09 11:04:00,
2013-03-09 05:09:00,20.0,17.7,29.88,SE,124,2.0,4.0,91,0.00,,,0.00,VWS V14.01,2013-03-09 11:09:00,
2013-03-09 05:14:00,20.1,17.8,29.89,SE,124,1.0,4.0,91,0.00,,,0.00,VWS V14.01,2013-03-09 11:14:00,
2013-03-09 05:15:00,20.1,17.8,29.89,SE,124,2.0,4.0,91,0.00,,,0.00,VWS V14.01,2013-03-09 11:15:00,
2013-03-09 05:19:00,20.1,17.8,29.89,SE,136,4.0,6.0,91,0.00,,,0.00,VWS V14.01,2013-03-09 11:19:00,
2013-03-09 05:24:00,20.1,17.8,29.89,SSE,147,4.0,7.0,91,0.00,,,0.00,VWS V14.01,2013-03-09 11:24:00,
2013-03-09 05:29:00,20.1,17.8,29.88,SSE,147,3.0,7.0,91,0.00,,,0.00,VWS V14.01,2013-03-09 11:29:00,
2013-03-09 05:30:00,20.1,17.8,29.88,SSE,147,3.0,7.0,91,0.00,,,0.00,VWS V14.01,2013-03-09 11:30:00,
2013-03-09 05:34:00,20.0,17.7,29.88,SSE,147,4.0,5.0,91,0.00,,,0.00,VWS V14.01,2013-03-09 11:34:00,
2013-03-09 05:39:00,20.0,17.7,29.88,SSE,147,4.0,5.0,91,0.00,,,0.00,VWS V14.01,2013-03-09 11:39:00,
2013-03-09 05:44:00,20.0,17.7,29.88,SSE,147,3.0,5.0,91,0.00,,,0.00,VWS V14.01,2013-03-09 11:44:00,
2013-03-09 05:45:00,20.0,17.7,29.88,SSE,147,2.0,5.0,91,0.00,,,0.00,VWS V14.01,2013-03-09 11:45:00,
2013-03-09 05:49:00,20.0,17.7,29.89,SSE,147,0.0,3.0,91,0.00,,,0.00,VWS V14.01,2013-03-09 11:49:00,
2013-03-09 05:54:00,20.0,17.7,29.89,SSE,147,0.0,3.0,91,0.00,,,0.00,VWS V14.01,2013-03-09 11:54:00,
2013-03-09 05:59:00,20.0,17.7,29.89,SSE,147,0.0,3.0,91,0.00,,,0.00,VWS V14.01,2013-03-09 11:59:00,
2013-03-09 06:00:00,20.0,17.7,29.89,SSE,147,0.0,3.0,91,0.00,,,0.00,VWS V14.01,2013-03-09 12:00:00,
2013-03-09 06:04:00,20.0,17.7,29.89,SSE,147,0.0,0.0,91,0.00,,,0.00,VWS V14.01,2013-03-09 12:04:00,
2013-03-09 06:09:00,20.0,17.7,29.89,SSE,147,0.0,0.0,91,0.00,,,0.00,VWS V14.01,2013-03-09 12:09:00,
2013-03-09 06:14:00,20.1,17.8,29.89,SSE,147,0.0,0.0,91,0.00,,,0.00,VWS V14.01,2013-03-09 12:14:00,
2013-03-09 06:15:00,20.1,17.8,29.89,SSE,147,0.0,0.0,91,0.00,,,0.00,VWS V14.01,2013-03-09 12:15:00,
2013-03-09 06:19:00,20.2,17.9,29.89,SSE,147,0.0,0.0,91,0.00,,,0.00,VWS V14.01,2013-03-09 12:19:00,
2013-03-09 06:24:00,20.2,17.9,29.88,SSE,147,0.0,0.0,91,0.00,,,0.00,VWS V14.01,2013-03-09 12:24:00,
2013-03-09 06:29:00,20.2,17.9,29.89,SSE,147,1.0,2.0,91,0.00,,,0.00,VWS V14.01,2013-03-09 12:29:00,
2013-03-09 06:30:00,20.2,17.9,29.89,SSE,147,0.0,2.0,91,0.00,,,0.00,VWS V14.01,2013-03-09 12:30:00,
2013-03-09 06:34:00,20.2,17.9,29.89,SSE,147,0.0,0.0,91,0.00,,,0.00,VWS V14.01,2013-03-09 12:34:00,
2013-03-09 06:39:00,20.2,17.9,29.89,SSE,147,0.0,0.0,91,0.00,,,0.00,VWS V14.01,2013-03-09 12:39:00,
2013-03-09 06:44:00,20.2,17.9,29.89,SSE,147,0.0,2.0,91,0.00,,,0.00,VWS V14.01,2013-03-09 12:44:00,
2013-03-09 06:45:00,20.2,17.9,29.89,SSE,147,0.0,2.0,91,0.00,,,0.00,VWS V14.01,2013-03-09 12:45:00,
2013-03-09 06:49:00,20.2,17.9,29.89,SSE,147,0.0,0.0,91,0.00,,,0.00,VWS V14.01,2013-03-09 12:49:00,
2013-03-09 06:54:00,20.2,17.9,29.89,SSE,147,0.0,0.0,91,0.00,,,0.00,VWS V14.01,2013-03-09 12:54:00,
2013-03-09 06:59:00,20.2,17.9,29.89,SSE,147,0.0,0.0,91,0.00,,,0.00,VWS V14.01,2013-03-09 12:59:00,
2013-03-09 07:00:00,20.2,17.9,29.89,SSE,147,0.0,0.0,91,0.00,,,0.00,VWS V14.01,2013-03-09 13:00:00,
2013-03-09 07:04:00,20.2,17.9,29.89,SSE,147,0.0,0.0,91,0.00,,,0.00,VWS V14.01,2013-03-09 13:04:00,
2013-03-09 07:09:00,20.2,17.9,29.89,SSE,147,0.0,0.0,91,0.00,,,0.00,VWS V14.01,2013-03-09 13:09:00,
2013-03-09 07:14:00,20.2,17.9,29.89,SSE,147,0.0,0.0,91,0.00,,,0.00,VWS V14.01,2013-03-09 13:14:00,
2013-03-09 07:15:00,20.2,17.9,29.89,SSE,147,0.0,0.0,91,0.00,,,0.00,VWS V14.01,2013-03-09 13:15:00,
2013-03-09 07:19:00,20.3,18.0,29.89,SSE,147,2.0,4.0,91,0.00,,,0.00,VWS V14.01,2013-03-09 13:19:00,
2013-03-09 07:24:00,20.5,18.2,29.89,SSE,147,2.0,4.0,91,0.00,,,0.00,VWS V14.01,2013-03-09 13:24:00,
2013-03-09 07:29:00,20.5,18.2,29.89,SSE,147,2.0,4.0,91,0.00,,,0.00,VWS V14.01,2013-03-09 13:29:00,
2013-03-09 07:30:00,20.5,18.2,29.89,SSE,147,2.0,4.0,91,0.00,,,0.00,VWS V14.01,2013-03-09 13:30:00,
2013-03-09 07:34:00,20.6,18.3,29.89,SSE,147,1.0,4.0,91,0.00,,,0.00,VWS V14.01,2013-03-09 13:34:00,
2013-03-09 07:39:00,20.6,18.3,29.89,SSE,147,2.0,4.0,91,0.00,,,0.00,VWS V14.01,2013-03-09 13:39:00,
2013-03-09 07:44:00,20.5,18.2,29.89,SSE,147,2.0,4.0,91,0.00,,,0.00,VWS V14.01,2013-03-09 13:44:00,
2013-03-09 07:45:00,20.5,18.2,29.89,SSE,147,1.0,4.0,91,0.00,,,0.00,VWS V14.01,2013-03-09 13:45:00,
2013-03-09 07:49:00,20.6,18.3,29.89,SSE,147,1.0,2.0,91,0.00,,,0.00,VWS V14.01,2013-03-09 13:49:00,
2013-03-09 07:54:00,20.6,18.3,29.89,SSE,147,3.0,3.0,91,0.00,,,0.00,VWS V14.01,2013-03-09 13:54:00,
2013-03-09 07:59:00,20.6,18.3,29.89,SSE,147,2.0,4.0,91,0.00,,,0.00,VWS V14.01,2013-03-09 13:59:00,
2013-03-09 08:00:00,20.6,18.3,29.89,SSE,147,2.0,4.0,91,0.00,,,0.00,VWS V14.01,2013-03-09 14:00:00,
2013-03-09 08:04:00,20.6,18.3,29.89,SSE,147,0.0,4.0,91,0.00,,,0.00,VWS V14.01,2013-03-09 14:04:00,
2013-03-09 08:09:00,20.7,18.4,29.89,SSE,147,2.0,4.0,91,0.00,,,0.00,VWS V14.01,2013-03-09 14:09:00,
2013-03-09 08:14:00,20.7,18.4,29.88,SSE,147,3.0,5.0,91,0.00,,,0.00,VWS V14.01,2013-03-09 14:14:00,
2013-03-09 08:15:00,20.8,18.5,29.88,SSE,147,2.0,5.0,91,0.00,,,0.00,VWS V14.01,2013-03-09 14:15:00,
2013-03-09 08:19:00,20.8,18.5,29.88,SSE,147,4.0,4.0,91,0.00,,,0.00,VWS V14.01,2013-03-09 14:19:00,
2013-03-09 08:24:00,20.9,18.6,29.89,SSE,147,1.0,4.0,91,0.00,,,0.00,VWS V14.01,2013-03-09 14:24:00,
2013-03-09 08:29:00,21.1,18.8,29.89,SSE,147,4.0,4.0,91,0.00,,,0.00,VWS V14.01,2013-03-09 14:29:00,
2013-03-09 08:30:00,21.1,18.8,29.89,SSE,147,4.0,4.0,91,0.00,,,0.00,VWS V14.01,2013-03-09 14:30:00,
2013-03-09 08:34:00,21.2,18.9,29.88,SSE,147,2.0,5.0,91,0.00,,,0.00,VWS V14.01,2013-03-09 14:34:00,
2013-03-09 08:39:00,21.4,19.1,29.88,SSE,147,2.0,5.0,91,0.00,,,0.00,VWS V14.01,2013-03-09 14:39:00,
2013-03-09 08:44:00,21.6,19.3,29.89,SSE,147,3.0,5.0,91,0.00,,,0.00,VWS V14.01,2013-03-09 14:44:00,
2013-03-09 08:45:00,21.6,19.3,29.88,SSE,147,3.0,5.0,91,0.00,,,0.00,VWS V14.01,2013-03-09 14:45:00,
2013-03-09 08:49:00,21.6,19.3,29.89,SSE,147,2.0,3.0,91,0.00,,,0.00,VWS V14.01,2013-03-09 14:49:00,
2013-03-09 08:54:00,21.8,19.5,29.89,SSE,147,2.0,4.0,91,0.00,,,0.00,VWS V14.01,2013-03-09 14:54:00,
2013-03-09 08:59:00,22.0,19.7,29.89,SSE,147,1.0,4.0,91,0.00,,,0.00,VWS V14.01,2013-03-09 14:59:00,
2013-03-09 09:00:00,22.1,19.8,29.89,SSE,147,3.0,4.0,91,0.00,,,0.00,VWS V14.01,2013-03-09 15:00:00,
2013-03-09 09:04:00,22.2,19.9,29.89,SSE,147,3.0,3.0,91,0.00,,,0.00,VWS V14.01,2013-03-09 15:04:00,
2013-03-09 09:09:00,22.4,20.1,29.89,SSE,147,2.0,3.0,91,0.00,,,0.00,VWS V14.01,2013-03-09 15:09:00,
2013-03-09 09:14:00,22.4,20.1,29.89,SSE,147,3.0,3.0,91,0.00,,,0.00,VWS V14.01,2013-03-09 15:14:00,
2013-03-09 09:15:00,22.5,20.2,29.89,SSE,147,2.0,4.0,91,0.00,,,0.00,VWS V14.01,2013-03-09 15:15:00,
2013-03-09 09:19:00,22.5,20.2,29.89,SSE,147,1.0,2.0,91,0.00,,,0.00,VWS V14.01,2013-03-09 15:19:00,
2013-03-09 09:24:00,22.7,20.4,29.89,SSE,147,2.0,3.0,91,0.00,,,0.00,VWS V14.01,2013-03-09 15:24:00,
2013-03-09 09:29:00,22.9,20.6,29.89,SSE,147,2.0,3.0,91,0.00,,,0.00,VWS V14.01,2013-03-09 15:29:00,
2013-03-09 09:30:00,22.9,20.6,29.89,SSE,147,1.0,3.0,91,0.00,,,0.00,VWS V14.01,2013-03-09 15:30:00,
2013-03-09 09:34:00,23.1,20.8,29.89,SSE,147,3.0,3.0,91,0.00,,,0.00,VWS V14.01,2013-03-09 15:34:00,
2013-03-09 09:39:00,23.3,21.0,29.89,SSE,147,1.0,4.0,91,0.00,,,0.00,VWS V14.01,2013-03-09 15:39:00,
2013-03-09 09:44:00,23.3,21.0,29.89,SSE,147,2.0,4.0,91,0.00,,,0.00,VWS V14.01,2013-03-09 15:44:00,
2013-03-09 09:45:00,23.3,21.0,29.89,SSE,147,3.0,4.0,91,0.00,,,0.00,VWS V14.01,2013-03-09 15:45:00,
2013-03-09 09:49:00,23.4,21.1,29.89,SSE,147,4.0,4.0,91,0.00,,,0.00,VWS V14.01,2013-03-09 15:49:00,
2013-03-09 09:54:00,23.5,21.2,29.89,SSE,155,6.0,6.0,91,0.00,,,0.00,VWS V14.01,2013-03-09 15:54:00,
2013-03-09 09:59:00,23.5,21.2,29.89,SSE,167,3.0,6.0,91,0.00,,,0.00,VWS V14.01,2013-03-09 15:59:00,
2013-03-09 10:00:00,23.6,21.3,29.89,SSE,167,3.0,6.0,91,0.00,,,0.00,VWS V14.01,2013-03-09 16:00:00,
2013-03-09 10:04:00,23.8,21.5,29.89,SSE,167,4.0,6.0,91,0.00,,,0.00,VWS V14.01,2013-03-09 16:04:00,
2013-03-09 10:09:00,24.0,21.7,29.89,South,178,1.0,6.0,91,0.00,,,0.00,VWS V14.01,2013-03-09 16:09:00,
2013-03-09 10:14:00,24.3,22.0,29.89,South,180,3.0,6.0,91,0.00,,,0.00,VWS V14.01,2013-03-09 16:14:00,
2013-03-09 10:15:00,24.4,22.1,29.89,South,180,2.0,6.0,91,0.00,,,0.00,VWS V14.01,2013-03-09 16:15:00,
2013-03-09 10:19:00,24.5,22.2,29.89,South,180,4.0,4.0,91,0.00,,,0.00,VWS V14.01,2013-03-09 16:19:00,
2013-03-09 10:24:00,24.7,22.4,29.89,SSW,193,4.0,6.0,91,0.00,,,0.00,VWS V14.01,2013-03-09 16:24:00,
2013-03-09 10:29:00,24.9,22.6,29.89,SSW,196,2.0,6.0,91,0.00,,,0.00,VWS V14.01,2013-03-09 16:29:00,
2013-03-09 10:30:00,24.9,22.6,29.89,SSW,196,3.0,6.0,91,0.00,,,0.00,VWS V14.01,2013-03-09 16:30:00,
2013-03-09 10:34:00,25.1,22.8,29.89,SSW,200,3.0,6.0,91,0.00,,,0.00,VWS V14.01,2013-03-09 16:34:00,
2013-03-09 10:39:00,25.3,23.0,29.89,SSW,207,1.0,6.0,91,0.00,,,0.00,VWS V14.01,2013-03-09 16:39:00,
2013-03-09 10:44:00,25.6,23.5,29.89,SSW,207,2.0,6.0,92,0.00,,,0.00,VWS V14.01,2013-03-09 16:44:00,
2013-03-09 10:45:00,25.7,23.6,29.88,SSW,208,5.0,6.0,92,0.00,,,0.00,VWS V14.01,2013-03-09 16:45:00,
2013-03-09 10:49:00,25.8,23.7,29.88,SSW,208,4.0,6.0,92,0.00,,,0.00,VWS V14.01,2013-03-09 16:49:00,
2013-03-09 10:54:00,26.1,24.0,29.89,SSW,208,0.0,6.0,92,0.00,,,0.00,VWS V14.01,2013-03-09 16:54:00,
2013-03-09 10:59:00,26.3,24.2,29.89,SSW,211,3.0,6.0,92,0.00,,,0.00,VWS V14.01,2013-03-09 16:59:00,
2013-03-09 11:00:00,26.4,24.3,29.89,SSW,211,3.0,6.0,92,0.00,,,0.00,VWS V14.01,2013-03-09 17:00:00,
2013-03-09 11:04:00,26.5,24.4,29.89,SSW,211,3.0,6.0,92,0.00,,,0.00,VWS V14.01,2013-03-09 17:04:00,
2013-03-09 11:09:00,26.4,24.3,29.89,SSW,213,3.0,6.0,92,0.00,,,0.00,VWS V14.01,2013-03-09 17:09:00,
2013-03-09 11:14:00,26.4,24.3,29.89,SSW,213,2.0,6.0,92,0.00,,,0.00,VWS V14.01,2013-03-09 17:14:00,
2013-03-09 11:15:00,26.4,24.3,29.89,SSW,213,4.0,6.0,92,0.00,,,0.00,VWS V14.01,2013-03-09 17:15:00,
2013-03-09 11:19:00,26.5,24.4,29.90,SSW,213,3.0,5.0,92,0.00,,,0.00,VWS V14.01,2013-03-09 17:19:00,
2013-03-09 11:24:00,26.7,24.6,29.89,SW,228,3.0,6.0,92,0.00,,,0.00,VWS V14.01,2013-03-09 17:24:00,
2013-03-09 11:29:00,26.9,24.8,29.89,WSW,254,3.0,8.0,92,0.00,,,0.00,VWS V14.01,2013-03-09 17:29:00,
2013-03-09 11:30:00,27.0,24.9,29.89,WSW,257,5.0,8.0,92,0.00,,,0.00,VWS V14.01,2013-03-09 17:30:00,
2013-03-09 11:34:00,27.1,25.0,29.89,West,264,6.0,9.0,92,0.00,,,0.00,VWS V14.01,2013-03-09 17:34:00,
2013-03-09 11:39:00,27.3,25.2,29.89,West,280,4.0,9.0,92,0.00,,,0.00,VWS V14.01,2013-03-09 17:39:00,
2013-03-09 11:44:00,27.4,25.3,29.89,West,279,4.0,9.0,92,0.00,,,0.00,VWS V14.01,2013-03-09 17:44:00,
2013-03-09 11:45:00,27.4,25.3,29.89,WNW,285,6.0,9.0,92,0.00,,,0.00,VWS V14.01,2013-03-09 17:45:00,
2013-03-09 11:49:00,27.6,25.5,29.89,WNW,282,4.0,7.0,92,0.00,,,0.00,VWS V14.01,2013-03-09 17:49:00,
2013-03-09 11:54:00,27.7,25.6,29.89,West,272,2.0,8.0,92,0.00,,,0.00,VWS V14.01,2013-03-09 17:54:00,
2013-03-09 11:59:00,27.7,25.3,29.90,West,281,6.0,8.0,91,0.00,,,0.00,VWS V14.01,2013-03-09 17:59:00,
2013-03-09 12:00:00,27.7,25.3,29.90,West,281,4.0,8.0,91,0.00,,,0.00,VWS V14.01,2013-03-09 18:00:00,
2013-03-09 12:04:00,27.6,25.5,29.90,West,274,3.0,9.0,92,0.00,,,0.00,VWS V14.01,2013-03-09 18:04:00,
2013-03-09 12:09:00,27.5,25.4,29.90,West,277,3.0,9.0,92,0.00,,,0.00,VWS V14.01,2013-03-09 18:09:00,
2013-03-09 12:14:00,27.2,25.1,29.90,WNW,284,2.0,9.0,92,0.00,,,0.00,VWS V14.01,2013-03-09 18:14:00,
2013-03-09 12:15:00,27.2,25.1,29.89,WNW,284,3.0,9.0,92,0.00,,,0.00,VWS V14.01,2013-03-09 18:15:00,
2013-03-09 12:19:00,27.1,25.0,29.89,WNW,284,2.0,6.0,92,0.00,,,0.00,VWS V14.01,2013-03-09 18:19:00,
2013-03-09 12:24:00,27.1,25.0,29.89,WNW,291,7.0,7.0,92,0.00,,,0.00,VWS V14.01,2013-03-09 18:24:00,
2013-03-09 12:29:00,27.0,25.2,29.89,WNW,296,7.0,8.0,93,0.00,,,0.00,VWS V14.01,2013-03-09 18:29:00,
2013-03-09 12:30:00,27.0,24.9,29.89,WNW,294,6.0,8.0,92,0.00,,,0.00,VWS V14.01,2013-03-09 18:30:00,
2013-03-09 12:34:00,27.1,25.3,29.89,WNW,300,6.0,9.0,93,0.00,,,0.00,VWS V14.01,2013-03-09 18:34:00,
2013-03-09 12:39:00,27.5,25.7,29.89,NW,306,9.0,11.0,93,0.00,,,0.00,VWS V14.01,2013-03-09 18:39:00,
2013-03-09 12:44:00,27.9,26.1,29.89,NW,311,9.0,14.0,93,0.00,,,0.00,VWS V14.01,2013-03-09 18:44:00,
2013-03-09 12:45:00,28.0,26.2,29.89,NW,313,14.0,18.0,93,0.00,,,0.00,VWS V14.01,2013-03-09 18:45:00,
2013-03-09 12:49:00,27.9,25.8,29.89,NW,306,12.0,18.0,92,0.00,,,0.00,VWS V14.01,2013-03-09 18:49:00,
2013-03-09 12:54:00,28.0,25.9,29.89,NW,314,12.0,18.0,92,0.00,,,0.00,VWS V14.01,2013-03-09 18:54:00,
2013-03-09 12:59:00,28.2,26.1,29.89,NNW,329,9.0,20.0,92,0.00,,,0.00,VWS V14.01,2013-03-09 18:59:00,
2013-03-09 13:00:00,28.2,26.1,29.89,WNW,300,11.0,20.0,92,0.00,,,0.00,VWS V14.01,2013-03-09 19:00:00,
2013-03-09 13:04:00,27.8,25.4,29.89,NW,321,14.0,22.0,91,0.00,,,0.00,VWS V14.01,2013-03-09 19:04:00,
2013-03-09 13:09:00,27.2,24.9,29.89,NW,313,14.0,22.0,91,0.00,,,0.00,VWS V14.01,2013-03-09 19:09:00,
2013-03-09 13:14:00,27.0,24.6,29.89,NW,317,10.0,22.0,91,0.00,,,0.00,VWS V14.01,2013-03-09 19:14:00,
2013-03-09 13:15:00,27.0,24.9,29.89,NW,317,16.0,22.0,92,0.00,,,0.00,VWS V14.01,2013-03-09 19:15:00,
2013-03-09 13:19:00,27.0,24.9,29.89,NW,324,15.0,19.0,92,0.00,,,0.00,VWS V14.01,2013-03-09 19:19:00,
2013-03-09 13:24:00,26.7,24.6,29.90,NNW,327,11.0,20.0,92,0.00,,,0.00,VWS V14.01,2013-03-09 19:24:00,
2013-03-09 13:29:00,26.2,24.4,29.89,NW,321,17.0,22.0,93,0.00,,,0.00,VWS V14.01,2013-03-09 19:29:00,
2013-03-09 13:30:00,26.1,24.3,29.89,NW,310,20.0,22.0,93,0.00,,,0.00,VWS V14.01,2013-03-09 19:30:00,
2013-03-09 13:34:00,25.6,23.5,29.90,NW,308,19.0,23.0,92,0.00,,,0.00,VWS V14.01,2013-03-09 19:34:00,
2013-03-09 13:39:00,25.7,23.6,29.90,NW,304,18.0,23.0,92,0.00,,,0.00,VWS V14.01,2013-03-09 19:39:00,
2013-03-09 13:44:00,25.5,23.2,29.89,NW,323,22.0,23.0,91,0.00,,,0.00,VWS V14.01,2013-03-09 19:44:00,
2013-03-09 13:45:00,25.4,23.1,29.89,NW,323,20.0,23.0,91,0.00,,,0.00,VWS V14.01,2013-03-09 19:45:00,
2013-03-09 13:49:00,25.2,22.6,29.89,NW,314,21.0,22.0,90,0.00,,,0.00,VWS V14.01,2013-03-09 19:49:00,
2013-03-09 13:54:00,25.5,22.9,29.89,NNW,347,13.0,22.0,90,0.00,,,0.00,VWS V14.01,2013-03-09 19:54:00,
2013-03-09 13:59:00,25.7,23.1,29.89,NNW,331,4.0,22.0,90,0.00,,,0.00,VWS V14.01,2013-03-09 19:59:00,
2013-03-09 14:00:00,25.8,23.2,29.89,NW,314,10.0,22.0,90,0.00,,,0.00,VWS V14.01,2013-03-09 20:00:00,
2013-03-09 14:04:00,25.7,22.8,29.89,NW,312,11.0,17.0,89,0.00,,,0.00,VWS V14.01,2013-03-09 20:04:00,
2013-03-09 14:09:00,25.4,22.5,29.90,NW,323,14.0,18.0,89,0.00,,,0.00,VWS V14.01,2013-03-09 20:09:00,
2013-03-09 14:14:00,25.0,21.9,29.89,NW,308,15.0,20.0,88,0.00,,,0.00,VWS V14.01,2013-03-09 20:14:00,
2013-03-09 14:15:00,24.9,21.8,29.89,NW,313,16.0,22.0,88,0.00,,,0.00,VWS V14.01,2013-03-09 20:15:00,
2013-03-09 14:19:00,24.6,21.5,29.90,NW,313,18.0,20.0,88,0.00,,,0.00,VWS V14.01,2013-03-09 20:19:00,
2013-03-09 14:24:00,24.2,20.8,29.90,NW,313,13.0,21.0,87,0.00,,,0.00,VWS V14.01,2013-03-09 20:24:00,
2013-03-09 14:29:00,24.4,21.0,29.90,NW,315,11.0,23.0,87,0.00,,,0.00,VWS V14.01,2013-03-09 20:29:00,
2013-03-09 14:30:00,24.5,21.1,29.90,WNW,298,17.0,23.0,87,0.00,,,0.00,VWS V14.01,2013-03-09 20:30:00,
2013-03-09 14:34:00,24.3,20.6,29.90,NW,316,12.0,18.0,86,0.00,,,0.00,VWS V14.01,2013-03-09 20:34:00,
2013-03-09 14:39:00,24.1,20.5,29.90,NW,309,16.0,20.0,86,0.00,,,0.00,VWS V14.01,2013-03-09 20:39:00,
2013-03-09 14:44:00,23.8,20.1,29.90,NW,313,13.0,20.0,86,0.00,,,0.00,VWS V14.01,2013-03-09 20:44:00,
2013-03-09 14:45:00,23.7,20.0,29.90,NW,316,12.0,20.0,86,0.00,,,0.00,VWS V14.01,2013-03-09 20:45:00,
2013-03-09 14:49:00,23.9,20.2,29.90,NNW,342,10.0,16.0,86,0.00,,,0.00,VWS V14.01,2013-03-09 20:49:00,
2013-03-09 14:54:00,23.8,19.9,29.91,NW,313,12.0,19.0,85,0.00,,,0.00,VWS V14.01,2013-03-09 20:54:00,
2013-03-09 14:59:00,23.6,19.4,29.91,NW,309,16.0,19.0,84,0.00,,,0.00,VWS V14.01,2013-03-09 20:59:00,
2013-03-09 15:00:00,23.5,19.3,29.91,NW,306,16.0,19.0,84,0.00,,,0.00,VWS V14.01,2013-03-09 21:00:00,
2013-03-09 15:04:00,23.1,18.9,29.92,NW,323,17.0,20.0,84,0.00,,,0.00,VWS V14.01,2013-03-09 21:04:00,
2013-03-09 15:09:00,23.0,19.1,29.92,NW,322,15.0,21.0,85,0.00,,,0.00,VWS V14.01,2013-03-09 21:09:00,
2013-03-09 15:14:00,23.0,19.1,29.92,NW,309,14.0,21.0,85,0.00,,,0.00,VWS V14.01,2013-03-09 21:14:00,
2013-03-09 15:15:00,23.1,19.2,29.92,NNW,327,7.0,21.0,85,0.00,,,0.00,VWS V14.01,2013-03-09 21:15:00,
2013-03-09 15:19:00,23.1,18.9,29.92,WNW,303,15.0,19.0,84,0.00,,,0.00,VWS V14.01,2013-03-09 21:19:00,
2013-03-09 15:24:00,23.3,19.4,29.92,NW,317,13.0,19.0,85,0.00,,,0.00,VWS V14.01,2013-03-09 21:24:00,
2013-03-09 15:29:00,23.8,19.6,29.92,WNW,302,20.0,24.0,84,0.00,,,0.00,VWS V14.01,2013-03-09 21:29:00,
2013-03-09 15:30:00,23.5,19.0,29.92,NNW,332,16.0,24.0,83,0.00,,,0.00,VWS V14.01,2013-03-09 21:30:00,
2013-03-09 15:34:00,23.2,18.7,29.92,NW,316,13.0,21.0,83,0.00,,,0.00,VWS V14.01,2013-03-09 21:34:00,
2013-03-09 15:39:00,23.5,19.0,29.93,NW,311,12.0,21.0,83,0.00,,,0.00,VWS V14.01,2013-03-09 21:39:00,
2013-03-09 15:44:00,24.0,19.5,29.93,NNW,335,11.0,21.0,83,0.00,,,0.00,VWS V14.01,2013-03-09 21:44:00,
2013-03-09 15:45:00,24.0,19.5,29.93,NW,323,11.0,21.0,83,0.00,,,0.00,VWS V14.01,2013-03-09 21:45:00,
2013-03-09 15:49:00,23.8,18.8,29.93,WNW,300,14.0,23.0,81,0.00,,,0.00,VWS V14.01,2013-03-09 21:49:00,
2013-03-09 15:54:00,23.2,18.2,29.93,NW,319,14.0,26.0,81,0.00,,,0.00,VWS V14.01,2013-03-09 21:54:00,
2013-03-09 15:59:00,23.2,18.5,29.93,NW,306,14.0,26.0,82,0.00,,,0.00,VWS V14.01,2013-03-09 21:59:00,
2013-03-09 16:00:00,23.1,18.4,29.93,NNW,337,10.0,26.0,82,0.00,,,0.00,VWS V14.01,2013-03-09 22:00:00,
2013-03-09 16:04:00,23.0,18.2,29.94,NW,313,12.0,18.0,82,0.00,,,0.00,VWS V14.01,2013-03-09 22:04:00,
2013-03-09 16:09:00,22.6,18.1,29.94,NW,312,16.0,27.0,83,0.00,,,0.00,VWS V14.01,2013-03-09 22:09:00,
2013-03-09 16:14:00,22.0,17.3,29.94,NW,310,17.0,27.0,82,0.00,,,0.00,VWS V14.01,2013-03-09 22:14:00,
2013-03-09 16:15:00,21.7,17.0,29.94,NW,315,11.0,27.0,82,0.00,,,0.00,VWS V14.01,2013-03-09 22:15:00,
2013-03-09 16:19:00,21.4,17.0,29.95,NW,306,22.0,27.0,83,0.00,,,0.00,VWS V14.01,2013-03-09 22:19:00,
2013-03-09 16:24:00,20.6,16.5,29.95,NW,325,22.0,32.0,84,0.00,,,0.00,VWS V14.01,2013-03-09 22:24:00,
2013-03-09 16:29:00,20.5,16.4,29.95,NW,306,19.0,32.0,84,0.00,,,0.00,VWS V14.01,2013-03-09 22:29:00,
2013-03-09 16:30:00,20.4,16.3,29.96,NNW,327,20.0,32.0,84,0.00,,,0.00,VWS V14.01,2013-03-09 22:30:00,
2013-03-09 16:34:00,20.2,16.1,29.96,NW,312,20.0,28.0,84,0.00,,,0.00,VWS V14.01,2013-03-09 22:34:00,
2013-03-09 16:39:00,20.1,16.0,29.96,WNW,295,17.0,28.0,84,0.00,,,0.00,VWS V14.01,2013-03-09 22:39:00,
2013-03-09 16:44:00,20.2,16.1,29.96,NW,315,15.0,28.0,84,0.00,,,0.00,VWS V14.01,2013-03-09 22:44:00,
2013-03-09 16:45:00,20.2,16.1,29.96,WNW,300,6.0,28.0,84,0.00,,,0.00,VWS V14.01,2013-03-09 22:45:00,
2013-03-09 16:49:00,20.2,16.1,29.96,NNW,331,22.0,24.0,84,0.00,,,0.00,VWS V14.01,2013-03-09 22:49:00,
2013-03-09 16:54:00,20.0,15.9,29.96,NW,315,15.0,26.0,84,0.00,,,0.00,VWS V14.01,2013-03-09 22:54:00,
2013-03-09 16:59:00,19.9,15.8,29.97,NNW,348,15.0,28.0,84,0.00,,,0.00,VWS V14.01,2013-03-09 22:59:00,
2013-03-09 17:00:00,19.8,15.7,29.97,NNW,330,14.0,28.0,84,0.00,,,0.00,VWS V14.01,2013-03-09 23:00:00,
2013-03-09 17:04:00,19.7,15.6,29.97,NW,319,13.0,26.0,84,0.00,,,0.00,VWS V14.01,2013-03-09 23:04:00,
2013-03-09 17:09:00,19.3,15.2,29.97,NW,313,12.0,26.0,84,0.00,,,0.00,VWS V14.01,2013-03-09 23:09:00,
2013-03-09 17:14:00,19.2,15.1,29.97,NW,311,17.0,26.0,84,0.00,,,0.00,VWS V14.01,2013-03-09 23:14:00,
2013-03-09 17:15:00,19.2,15.1,29.97,NNW,330,16.0,26.0,84,0.00,,,0.00,VWS V14.01,2013-03-09 23:15:00,
2013-03-09 17:19:00,19.1,15.0,29.97,NW,316,14.0,23.0,84,0.00,,,0.00,VWS V14.01,2013-03-09 23:19:00,
2013-03-09 17:24:00,19.1,15.0,29.98,NW,313,12.0,23.0,84,0.00,,,0.00,VWS V14.01,2013-03-09 23:24:00,
2013-03-09 17:29:00,19.0,14.9,29.98,NW,317,27.0,27.0,84,0.00,,,0.00,VWS V14.01,2013-03-09 23:29:00,
2013-03-09 17:30:00,18.9,14.8,29.98,NW,317,21.0,27.0,84,0.00,,,0.00,VWS V14.01,2013-03-09 23:30:00,
2013-03-09 17:34:00,18.8,14.7,29.98,NNW,339,8.0,25.0,84,0.00,,,0.00,VWS V14.01,2013-03-09 23:34:00,
2013-03-09 17:39:00,18.7,14.6,29.99,NW,317,9.0,25.0,84,0.00,,,0.00,VWS V14.01,2013-03-09 23:39:00,
2013-03-09 17:44:00,18.6,14.5,29.99,NW,314,14.0,27.0,84,0.00,,,0.00,VWS V14.01,2013-03-09 23:44:00,
2013-03-09 17:45:00,18.6,14.5,29.99,WNW,299,13.0,27.0,84,0.00,,,0.00,VWS V14.01,2013-03-09 23:45:00,
2013-03-09 17:49:00,18.4,14.3,29.99,NW,305,12.0,23.0,84,0.00,,,0.00,VWS V14.01,2013-03-09 23:49:00,
2013-03-09 17:54:00,18.2,14.1,29.99,NW,324,8.0,23.0,84,0.00,,,0.00,VWS V14.01,2013-03-09 23:54:00,
2013-03-09 17:59:00,18.1,14.0,29.99,NW,314,13.0,23.0,84,0.00,,,0.00,VWS V14.01,2013-03-09 23:59:00,
2013-03-09 18:00:00,18.0,13.9,29.99,NW,307,15.0,23.0,84,0.00,,,0.00,VWS V14.01,2013-03-10 00:00:00,
2013-03-09 18:04:00,17.9,13.8,30.00,NW,308,19.0,24.0,84,0.00,,,0.00,VWS V14.01,2013-03-10 00:04:00,
2013-03-09 18:09:00,17.7,13.6,30.00,NW,310,20.0,24.0,84,0.00,,,0.00,VWS V14.01,2013-03-10 00:09:00,
2013-03-09 18:14:00,17.5,13.4,30.00,NW,319,15.0,24.0,84,0.00,,,0.00,VWS V14.01,2013-03-10 00:14:00,
2013-03-09 18:15:00,17.4,13.6,30.00,NW,325,7.0,24.0,85,0.00,,,0.00,VWS V14.01,2013-03-10 00:15:00,
2013-03-09 18:19:00,17.4,13.6,30.00,NNW,338,12.0,23.0,85,0.00,,,0.00,VWS V14.01,2013-03-10 00:19:00,
2013-03-09 18:24:00,17.1,13.0,30.00,NW,313,14.0,23.0,84,0.00,,,0.00,VWS V14.01,2013-03-10 00:24:00,
2013-03-09 18:29:00,17.1,13.3,30.01,NNW,329,7.0,23.0,85,0.00,,,0.00,VWS V14.01,2013-03-10 00:29:00,
2013-03-09 18:30:00,17.0,13.2,30.01,NW,317,9.0,23.0,85,0.00,,,0.00,VWS V14.01,2013-03-10 00:30:00,
2013-03-09 18:34:00,17.0,12.9,30.02,NW,315,8.0,23.0,84,0.00,,,0.00,VWS V14.01,2013-03-10 00:34:00,
2013-03-09 18:39:00,16.9,13.1,30.02,NW,311,15.0,23.0,85,0.00,,,0.00,VWS V14.01,2013-03-10 00:39:00,
2013-03-09 18:44:00,16.8,12.7,30.03,NW,322,15.0,23.0,84,0.00,,,0.00,VWS V14.01,2013-03-10 00:44:00,
2013-03-09 18:45:00,16.7,12.6,30.03,NW,313,14.0,23.0,84,0.00,,,0.00,VWS V14.01,2013-03-10 00:45:00,
2013-03-09 18:49:00,16.7,12.9,30.02,NNW,327,11.0,25.0,85,0.00,,,0.00,VWS V14.01,2013-03-10 00:49:00,
2013-03-09 18:54:00,16.6,12.8,30.03,WNW,301,9.0,25.0,85,0.00,,,0.00,VWS V14.01,2013-03-10 00:54:00,
2013-03-09 18:59:00,16.3,12.5,30.03,NW,309,16.0,25.0,85,0.00,,,0.00,VWS V14.01,2013-03-10 00:59:00,
2013-03-09 19:00:00,16.3,12.5,30.03,NW,311,23.0,25.0,85,0.00,,,0.00,VWS V14.01,2013-03-10 01:00:00,
2013-03-09 19:04:00,16.3,12.5,30.03,NNW,338,20.0,23.0,85,0.00,,,0.00,VWS V14.01,2013-03-10 01:04:00,
2013-03-09 19:09:00,16.1,12.3,30.03,WNW,301,14.0,23.0,85,0.00,,,0.00,VWS V14.01,2013-03-10 01:09:00,
2013-03-09 19:14:00,15.9,12.1,30.03,WNW,301,20.0,23.0,85,0.00,,,0.00,VWS V14.01,2013-03-10 01:14:00,
2013-03-09 19:15:00,16.0,12.2,30.03,NW,306,19.0,24.0,85,0.00,,,0.00,VWS V14.01,2013-03-10 01:15:00,
2013-03-09 19:19:00,15.9,12.1,30.04,NW,319,21.0,23.0,85,0.00,,,0.00,VWS V14.01,2013-03-10 01:19:00,
2013-03-09 19:24:00,15.9,12.1,30.04,NW,309,15.0,26.0,85,0.00,,,0.00,VWS V14.01,2013-03-10 01:24:00,
2013-03-09 19:29:00,15.6,11.8,30.05,NW,306,16.0,26.0,85,0.00,,,0.00,VWS V14.01,2013-03-10 01:29:00,
2013-03-09 19:30:00,15.6,11.8,30.05,NW,311,15.0,26.0,85,0.00,,,0.00,VWS V14.01,2013-03-10 01:30:00,
2013-03-09 19:34:00,15.5,11.7,30.05,NW,319,7.0,21.0,85,0.00,,,0.00,VWS V14.01,2013-03-10 01:34:00,
2013-03-09 19:39:00,15.4,11.6,30.06,NNW,327,14.0,21.0,85,0.00,,,0.00,VWS V14.01,2013-03-10 01:39:00,
2013-03-09 19:44:00,15.3,11.8,30.06,NW,318,14.0,21.0,86,0.00,,,0.00,VWS V14.01,2013-03-10 01:44:00,
2013-03-09 19:45:00,15.3,11.8,30.06,NW,304,15.0,21.0,86,0.00,,,0.00,VWS V14.01,2013-03-10 01:45:00,
2013-03-09 19:49:00,15.2,11.7,30.06,NW,318,14.0,22.0,86,0.00,,,0.00,VWS V14.01,2013-03-10 01:49:00,
2013-03-09 19:54:00,15.2,11.7,30.06,WNW,303,21.0,23.0,86,0.00,,,0.00,VWS V14.01,2013-03-10 01:54:00,
2013-03-09 19:59:00,15.1,11.6,30.07,NW,326,14.0,24.0,86,0.00,,,0.00,VWS V14.01,2013-03-10 01:59:00,
2013-03-09 20:00:00,15.0,11.5,30.07,WNW,302,16.0,26.0,86,0.00,,,0.00,VWS V14.01,2013-03-10 02:00:00,
2013-03-09 20:04:00,14.9,11.4,30.07,NW,307,15.0,26.0,86,0.00,,,0.00,VWS V14.01,2013-03-10 02:04:00,
2013-03-09 20:09:00,14.8,11.3,30.07,NNW,331,12.0,26.0,86,0.00,,,0.00,VWS V14.01,2013-03-10 02:09:00,
2013-03-09 20:14:00,14.6,11.1,30.08,NW,312,18.0,26.0,86,0.00,,,0.00,VWS V14.01,2013-03-10 02:14:00,
2013-03-09 20:15:00,14.5,11.0,30.08,WNW,302,11.0,26.0,86,0.00,,,0.00,VWS V14.01,2013-03-10 02:15:00,
2013-03-09 20:19:00,14.4,10.9,30.08,NW,315,17.0,20.0,86,0.00,,,0.00,VWS V14.01,2013-03-10 02:19:00,
2013-03-09 20:24:00,14.3,10.8,30.08,NW,315,19.0,26.0,86,0.00,,,0.00,VWS V14.01,2013-03-10 02:24:00,
2013-03-09 20:29:00,14.1,10.6,30.08,NW,311,17.0,26.0,86,0.00,,,0.00,VWS V14.01,2013-03-10 02:29:00,
2013-03-09 20:30:00,14.2,10.7,30.08,NW,313,16.0,26.0,86,0.00,,,0.00,VWS V14.01,2013-03-10 02:30:00,
2013-03-09 20:34:00,14.2,10.7,30.08,NW,315,17.0,20.0,86,0.00,,,0.00,VWS V14.01,2013-03-10 02:34:00,
2013-03-09 20:39:00,14.0,10.5,30.09,NW,305,18.0,22.0,86,0.00,,,0.00,VWS V14.01,2013-03-10 02:39:00,
2013-03-09 20:44:00,13.8,10.3,30.09,NW,319,18.0,22.0,86,0.00,,,0.00,VWS V14.01,2013-03-10 02:44:00,
2013-03-09 20:45:00,13.8,10.3,30.09,NW,309,11.0,22.0,86,0.00,,,0.00,VWS V14.01,2013-03-10 02:45:00,
2013-03-09 20:49:00,13.8,10.3,30.09,NW,311,14.0,21.0,86,0.00,,,0.00,VWS V14.01,2013-03-10 02:49:00,
2013-03-09 20:54:00,13.8,10.3,30.09,NW,307,18.0,22.0,86,0.00,,,0.00,VWS V14.01,2013-03-10 02:54:00,
2013-03-09 20:59:00,13.6,10.1,30.10,NW,304,19.0,22.0,86,0.00,,,0.00,VWS V14.01,2013-03-10 02:59:00,
2013-03-09 21:00:00,13.6,10.1,30.10,WNW,292,17.0,22.0,86,0.00,,,0.00,VWS V14.01,2013-03-10 03:00:00,
2013-03-09 21:04:00,13.5,10.0,30.10,NW,319,13.0,21.0,86,0.00,,,0.00,VWS V14.01,2013-03-10 03:04:00,
2013-03-09 21:09:00,13.3,9.8,30.10,NW,322,14.0,21.0,86,0.00,,,0.00,VWS V14.01,2013-03-10 03:09:00,
2013-03-09 21:14:00,13.4,9.9,30.10,NW,307,16.0,25.0,86,0.00,,,0.00,VWS V14.01,2013-03-10 03:14:00,
2013-03-09 21:15:00,13.4,9.9,30.10,WNW,302,10.0,25.0,86,0.00,,,0.00,VWS V14.01,2013-03-10 03:15:00,
2013-03-09 21:19:00,13.2,9.7,30.10,NW,316,16.0,23.0,86,0.00,,,0.00,VWS V14.01,2013-03-10 03:19:00,
2013-03-09 21:24:00,13.1,9.6,30.11,WNW,302,9.0,23.0,86,0.00,,,0.00,VWS V14.01,2013-03-10 03:24:00,
2013-03-09 21:29:00,13.0,9.5,30.11,West,278,14.0,23.0,86,0.00,,,0.00,VWS V14.01,2013-03-10 03:29:00,
2013-03-09 21:30:00,13.0,9.5,30.11,NW,313,14.0,23.0,86,0.00,,,0.00,VWS V14.01,2013-03-10 03:30:00,
2013-03-09 21:34:00,13.0,9.5,30.11,NNW,336,16.0,20.0,86,0.00,,,0.00,VWS V14.01,2013-03-10 03:34:00,
2013-03-09 21:39:00,12.8,9.3,30.11,NW,314,17.0,20.0,86,0.00,,,0.00,VWS V14.01,2013-03-10 03:39:00,
2013-03-09 21:44:00,12.6,9.1,30.11,NW,308,13.0,20.0,86,0.00,,,0.00,VWS V14.01,2013-03-10 03:44:00,
2013-03-09 21:45:00,12.5,9.0,30.12,WNW,297,12.0,20.0,86,0.00,,,0.00,VWS V14.01,2013-03-10 03:45:00,
2013-03-09 21:49:00,12.5,9.0,30.12,NNW,332,7.0,18.0,86,0.00,,,0.00,VWS V14.01,2013-03-10 03:49:00,
2013-03-09 21:54:00,12.4,8.9,30.12,NW,317,10.0,21.0,86,0.00,,,0.00,VWS V14.01,2013-03-10 03:54:00,
2013-03-09 21:59:00,12.3,8.8,30.12,NNW,329,11.0,21.0,86,0.00,,,0.00,VWS V14.01,2013-03-10 03:59:00,
2013-03-09 22:00:00,12.2,8.7,30.12,NW,322,14.0,21.0,86,0.00,,,0.00,VWS V14.01,2013-03-10 04:00:00,
2013-03-09 22:04:00,12.2,8.7,30.12,NW,310,17.0,21.0,86,0.00,,,0.00,VWS V14.01,2013-03-10 04:04:00,
2013-03-09 22:09:00,12.1,8.6,30.12,NW,304,15.0,21.0,86,0.00,,,0.00,VWS V14.01,2013-03-10 04:09:00,
2013-03-09 22:14:00,12.1,8.6,30.13,NW,304,11.0,21.0,86,0.00,,,0.00,VWS V14.01,2013-03-10 04:14:00,
2013-03-09 22:15:00,12.0,8.6,30.13,NW,306,18.0,21.0,86,0.00,,,0.00,VWS V14.01,2013-03-10 04:15:00,
2013-03-09 22:19:00,12.1,8.6,30.13,NW,313,14.0,19.0,86,0.00,,,0.00,VWS V14.01,2013-03-10 04:19:00,
2013-03-09 22:24:00,12.0,8.6,30.13,NW,310,13.0,19.0,86,0.00,,,0.00,VWS V14.01,2013-03-10 04:24:00,
2013-03-09 22:29:00,11.8,8.4,30.14,WNW,294,13.0,19.0,86,0.00,,,0.00,VWS V14.01,2013-03-10 04:29:00,
2013-03-09 22:30:00,11.8,8.6,30.14,NW,309,10.0,19.0,87,0.00,,,0.00,VWS V14.01,2013-03-10 04:30:00,
2013-03-09 22:34:00,11.7,8.2,30.14,NW,314,10.0,15.0,86,0.00,,,0.00,VWS V14.01,2013-03-10 04:34:00,
2013-03-09 22:39:00,11.7,8.2,30.14,WNW,302,9.0,18.0,86,0.00,,,0.00,VWS V14.01,2013-03-10 04:39:00,
2013-03-09 22:44:00,11.6,8.1,30.15,NNW,328,9.0,18.0,86,0.00,,,0.00,VWS V14.01,2013-03-10 04:44:00,
2013-03-09 22:45:00,11.5,8.1,30.15,NW,317,12.0,18.0,86,0.00,,,0.00,VWS V14.01,2013-03-10 04:45:00,
2013-03-09 22:49:00,11.5,8.1,30.15,NW,324,12.0,15.0,86,0.00,,,0.00,VWS V14.01,2013-03-10 04:49:00,
2013-03-09 22:54:00,11.5,8.1,30.15,NW,311,16.0,20.0,86,0.00,,,0.00,VWS V14.01,2013-03-10 04:54:00,
2013-03-09 22:59:00,11.4,8.0,30.16,NW,314,11.0,20.0,86,0.00,,,0.00,VWS V14.01,2013-03-10 04:59:00,
2013-03-09 23:00:00,11.4,8.0,30.16,NW,311,8.0,20.0,86,0.00,,,0.00,VWS V14.01,2013-03-10 05:00:00,
2013-03-09 23:05:00,11.2,7.8,30.16,NW,314,11.0,16.0,86,0.00,,,0.00,VWS V14.01,2013-03-10 05:05:00,
2013-03-09 23:10:00,11.1,7.9,30.15,NW,320,5.0,16.0,87,0.00,,,0.00,VWS V14.01,2013-03-10 05:10:00,
2013-03-09 23:15:00,11.0,7.8,30.15,NW,315,9.0,16.0,87,0.00,,,0.00,VWS V14.01,2013-03-10 05:15:00,
2013-03-09 23:20:00,11.0,7.8,30.16,NW,309,11.0,15.0,87,0.00,,,0.00,VWS V14.01,2013-03-10 05:20:00,
2013-03-09 23:25:00,11.0,7.8,30.16,NW,308,11.0,15.0,87,0.00,,,0.00,VWS V14.01,2013-03-10 05:25:00,
2013-03-09 23:30:00,10.9,7.7,30.16,NW,312,7.0,15.0,87,0.00,,,0.00,VWS V14.01,2013-03-10 05:30:00,
2013-03-09 23:35:00,10.7,7.3,30.16,NW,321,8.0,11.0,86,0.00,,,0.00,VWS V14.01,2013-03-10 05:35:00,
2013-03-09 23:40:00,10.6,7.4,30.16,NW,308,10.0,12.0,87,0.00,,,0.00,VWS V14.01,2013-03-10 05:40:00,
2013-03-09 23:45:00,10.4,7.0,30.16,NW,311,10.0,13.0,86,0.00,,,0.00,VWS V14.01,2013-03-10 05:45:00,
2013-03-09 23:50:00,10.2,6.8,30.16,NW,319,8.0,13.0,86,0.00,,,0.00,VWS V14.01,2013-03-10 05:50:00,
2013-03-09 23:55:00,10.1,6.9,30.16,NW,314,8.0,13.0,87,0.00,,,0.00,VWS V14.01,2013-03-10 05:55:00,